Weather in Zidky

Ukraine / Kharkiv Region     49˚41′42″N   36˚23′55″E
temp.,
°C
wind,
m/s
gust,
m/s
humid.,
%
clouds,
%
prec.,
mm/h
press.,
hPa
HPBL,
m
29 november, sun
sun2923:00+6˚sse61180100 0.0 1021542
02:00+5˚se61178100 0.0 1021462
05:00+4˚se61177100 0.0 1021416
08:00+3˚se61177100 0.0 1022389
11:00+4˚se61080100 0.0 1023461
14:00+5˚se5980100 0.0 1023527
17:00+5˚se5983100 0.0 1024408
20:00+5˚se51085100 0.0 1024375
30 november, mon
mon3023:00+6˚se51188100 0.0 1025560
02:00+5˚se61186100 0.0 1025616
05:00+5˚se61087100 0.0 1025639
08:00+5˚se61085100 0.0 1026662
11:00+6˚se71078100 0.0 1025776
14:00+5˚se6973100 0.0 1026784
17:00+5˚se5872100 0.0 1026882
20:00+5˚ese4873100 0.0 1026800
1 december, tue
tue123:00+4˚ese5974100 0.0 1026572
02:00+3˚ese5872100 0.0 1026528
05:00+3˚ese5872100 0.0 1027525
08:00ese51079100 0.0 1028488
11:00+1˚ese6977100 0.0 1028584
14:00+2˚e5973100 0.0 1028624
17:00e5117574 0.0 1029578
20:00−1˚e5117577 0.0 1030535
2 december, wed
wed223:00−2˚e5107666 0.0 1030523
02:00−2˚e5107381 0.0 1030520
05:00−2˚e6107389 0.0 1030522
08:00−2˚e6117294 0.0 1030495
11:00−1˚e61068100 0.0 1030547
14:00−1˚ese6976100 0.0 1029636
17:00−2˚ese6118594 0.1 1030588
20:00−2˚ese5108595 0.3 1030614
3 december, thu
thu323:00−1˚ese61073100 0.0 1030639
02:00−1˚ese51072100 0.0 1030590
05:00−2˚ese61073100 0.0 1030523
08:00−2˚ese61079100 0.0 1030531
11:00−1˚ese6108898 0.4 1030548
14:00−1˚ese698799 0.7 1030532
17:00−2˚ese61093100 0.3 1030507
20:00−2˚ese51092100 1.1 1030534